New Roads False River Regiona, LA

6:09 AM CDT on September 22, 2019 (GMT -0500)
False River

Weather History for KHZR - May, 2019

Change the Weather History Date:

Monday, May 27, 2019

  Actual Average (KBTR) Record (KBTR)
Temperature  
Mean Temperature 80 °F -  
Max Temperature 89 °F 88 °F 98 °F (1922)
Min Temperature 71 °F 67 °F 49 °F (1961)
Cooling Degree Days 15    
Growing Degree Days 30 (Base 50)    
Moisture  
Dew Point 71 °F    
Average Humidity 77    
Maximum Humidity 100    
Minimum Humidity 52    
Precipitation  
Precipitation 0.00 in - - ()
Sea Level Pressure  
Sea Level Pressure 30.00 in    
Wind  
Wind Speed 3 mph ()    
Max Wind Speed 13 mph    
Max Gust Speed 20 mph    
Averages and records for this station are not official NWS values.
T = Trace of Precipitation, MM = Missing Value Source: Averaged Metar Reports

Daily Weather History Graph

Daily Weather History Graph

Search for Another Location

Airport or City:

Astronomy

May. 27, 2019 Rise Set
Actual Time 6:05 AM CDT 8:01 PM CDT
Civil Twilight 5:38 AM CDT 8:28 PM CDT
Nautical Twilight 5:05 AM CDT 9:01 PM CDT
Astronomical Twilight 4:30 AM CDT 9:36 PM CDT
Moon 2:15 AM CDT (5/27) 1:47 PM CDT (5/27)
Length of Visible Light 14h 50m
Length of Day
13h 56m
Last Quarter, 40% of the Moon is Illuminated
May 27
Last Quarter
Jun 3
New
Jun 10
First Quarter
Jun 17
Full
Jun 25
Last Quarter

Hourly Weather History & Observations

Time (CDT) Temp. Heat Index Dew Point Humidity Pressure Visibility Wind Dir Wind Speed Gust Speed Precip Events Conditions
12:15 AM 77.0 °F - 71.6 °F 83% 30.05 in - SSE 3.5 mph - N/A   Clear
12:35 AM 77.0 °F - 71.6 °F 83% 30.05 in - Calm Calm - N/A   Clear
1:15 AM 75.2 °F - 71.6 °F 89% 30.04 in - Calm Calm - N/A   Unknown
1:36 AM 75.2 °F - 71.6 °F 89% - - Calm Calm - N/A   Unknown
1:57 AM 73.4 °F - 71.6 °F 94% 30.01 in - ESE 3.5 mph - N/A   Unknown
2:15 AM 73.4 °F - 71.6 °F 94% 30.01 in - Calm Calm - N/A   Unknown
2:35 AM 73.4 °F - 71.6 °F 94% 30.01 in - Calm Calm - N/A   Unknown
2:55 AM 73.4 °F - 71.6 °F 94% 30.00 in - Calm Calm - N/A   Unknown
3:16 AM 71.6 °F - 71.6 °F 100% 30.00 in - Calm Calm - N/A   Unknown
3:36 AM 71.6 °F - 71.6 °F 100% 30.00 in - Calm Calm - N/A   Unknown
3:55 AM 71.6 °F - 71.6 °F 100% 29.99 in - SE 3.5 mph - N/A   Unknown
4:15 AM 71.6 °F - 71.6 °F 100% 29.99 in - Calm Calm - N/A   Unknown
4:35 AM 71.6 °F - 71.6 °F 100% 29.99 in - Calm Calm - N/A   Unknown
4:56 AM 71.6 °F - 69.8 °F 94% 30.01 in - Calm Calm - N/A   Unknown
5:16 AM 71.6 °F - 71.6 °F 100% 30.01 in - Calm Calm - N/A   Overcast
5:35 AM 71.6 °F - 71.6 °F 100% 30.02 in - Calm Calm - N/A   Overcast
6:16 AM 71.6 °F - 71.6 °F 100% 30.01 in - Calm Calm - N/A   Unknown
6:36 AM 71.6 °F - 71.6 °F 100% 30.02 in - Calm Calm - N/A   Unknown
6:55 AM 71.6 °F - 71.6 °F 100% 30.04 in - Calm Calm - N/A   Unknown
7:15 AM 71.6 °F - 71.6 °F 100% 30.04 in - Calm Calm - N/A   Unknown
7:36 AM 73.4 °F - 73.4 °F 100% 30.05 in - Calm Calm - N/A   Unknown
8:15 AM 75.2 °F - 73.4 °F 94% 30.06 in - Calm Calm - N/A   Unknown
8:56 AM 78.8 °F - 73.4 °F 83% 30.07 in - South 4.6 mph - N/A   Scattered Clouds
9:15 AM 80.6 °F 84.6 °F 71.6 °F 74% 30.07 in - SSW 6.9 mph - N/A   Scattered Clouds
9:35 AM 80.6 °F 84.6 °F 71.6 °F 74% 30.07 in - SSE 5.8 mph - N/A   Scattered Clouds
9:56 AM 80.6 °F 83.9 °F 69.8 °F 70% 30.07 in - South 8.1 mph - N/A   Mostly Cloudy
10:15 AM - - - N/A% 30.07 in - SSW 4.6 mph - N/A   Scattered Clouds
10:55 AM 84.2 °F 88.4 °F 69.8 °F 62% 30.07 in - SSW 5.8 mph - N/A   Scattered Clouds
11:16 AM 84.2 °F 87.3 °F 68.0 °F 58% 30.07 in - South 8.1 mph - N/A   Scattered Clouds
11:55 AM 84.2 °F 88.4 °F 69.8 °F 62% 30.05 in - SSW 6.9 mph - N/A   Scattered Clouds
12:16 PM 84.2 °F 88.4 °F 69.8 °F 62% 30.05 in - NNE 5.8 mph - N/A   Scattered Clouds
12:56 PM 84.2 °F 88.4 °F 69.8 °F 62% 30.03 in - SE 4.6 mph - N/A   Scattered Clouds
2:36 PM 87.8 °F 92.6 °F 69.8 °F 55% 30.00 in - SSW 10.4 mph - N/A   Scattered Clouds
2:56 PM 87.8 °F 92.6 °F 69.8 °F 55% 30.00 in - South 11.5 mph - N/A   Scattered Clouds
3:35 PM 89.6 °F 94.7 °F 69.8 °F 52% 29.98 in - SSW 12.7 mph - N/A   Scattered Clouds
3:57 PM 89.6 °F 94.7 °F 69.8 °F 52% 29.97 in - SSW 6.9 mph - N/A   Scattered Clouds
4:15 PM 87.8 °F 91.4 °F 68.0 °F 52% 29.97 in - South 9.2 mph 19.6 mph N/A   Clear
4:35 PM 89.6 °F 94.7 °F 69.8 °F 52% 29.96 in - SSW 9.2 mph 16.1 mph N/A   Clear
5:16 PM 89.6 °F 94.7 °F 69.8 °F 52% 29.95 in - SSW 8.1 mph - N/A   Scattered Clouds
5:36 PM 87.8 °F 92.6 °F 69.8 °F 55% 29.94 in - South 9.2 mph - N/A   Clear
5:55 PM 87.8 °F 92.6 °F 69.8 °F 55% 29.94 in - South 10.4 mph - N/A   Scattered Clouds
6:36 PM 86.0 °F 90.4 °F 69.8 °F 58% 29.93 in - South 9.2 mph - N/A   Clear
6:56 PM 84.2 °F 88.4 °F 69.8 °F 62% 29.93 in - South 6.9 mph - N/A   Clear
7:16 PM 84.2 °F 88.4 °F 69.8 °F 62% 29.92 in - South 8.1 mph - N/A   Clear
7:35 PM 84.2 °F 88.4 °F 69.8 °F 62% 29.92 in - South 6.9 mph - N/A   Clear
7:56 PM 82.4 °F 86.3 °F 69.8 °F 66% 29.92 in - SSE 8.1 mph - N/A   Clear
8:17 PM 82.4 °F 86.3 °F 69.8 °F 66% 29.92 in - South 8.1 mph - N/A   Clear
8:35 PM 80.6 °F 83.9 °F 69.8 °F 70% 29.92 in - SSE 6.9 mph - N/A   Clear
9:16 PM 80.6 °F 83.9 °F 69.8 °F 70% 29.93 in - South 5.8 mph - N/A   Clear
10:35 PM 78.8 °F - 71.6 °F 78% 29.94 in - South 6.9 mph - N/A   Clear
10:55 PM 78.8 °F - 71.6 °F 78% 29.94 in - South 4.6 mph - N/A   Clear
11:16 PM 78.8 °F - 71.6 °F 78% 29.94 in - South 8.1 mph - N/A   Clear